EW3230 Weather Reports


Display with metric or nautical units.
time (UTC)temp
F
wind
direction
speed
MPH
gust
MPH
rain 1hr
in
rain 24hr
in
rain mn
in
humidity
%
barometer
mb
20180820045337 66 64 2.0 6.0 0.01 0.02 0.01 97 1018.6
20180820044340 66 95 1.0 4.0 0.01 0.02 0.01 97 1018.5
20180820043337 66 65 1.0 8.0 0.01 0.02 0.01 97 1018.6
20180820042338 66 56 2.0 6.0 0.01 0.02 0.01 97 1018.5
20180820041336 66 32 2.0 7.0 0.01 0.02 0.01 96 1018.6
20180820040336 66 78 1.0 6.0 0.00 0.01 0.00 96 1018.5
20180820035336 66 62 2.0 8.0 0.00 0.01 0.01 96 1018.6
20180820034333 66 8 1.0 5.0 0.00 0.01 0.01 96 1018.4
20180820033335 66 68 2.0 8.0 0.00 0.01 0.01 96 1018.4
20180820032333 66 86 2.0 10.0 0.00 0.01 0.01 96 1018.4
20180820031333 66 67 1.0 4.0 0.00 0.02 0.01 96 1018.5
20180820030334 66 84 2.0 7.0 0.00 0.02 0.01 95 1018.6
20180820025336 66 24 2.0 7.0 0.00 0.02 0.01 95 1018.6
20180820024336 66 75 1.0 9.0 0.00 0.02 0.01 95 1018.6
20180820023333 66 349 2.0 9.0 0.00 0.02 0.01 96 1018.5
20180820022334 66 63 1.0 7.0 0.00 0.02 0.01 96 1018.5
20180820021333 66 89 1.0 5.0 0.00 0.02 0.01 96 1018.6
20180820020334 66 29 1.0 7.0 0.00 0.02 0.01 95 1018.7
20180820015331 66 90 1.0 5.0 0.00 0.02 0.01 95 1018.7
20180820014331 66 72 2.0 8.0 0.00 0.02 0.01 95 1018.7
20180820013332 66 9 1.0 8.0 0.00 0.02 0.01 94 1018.7
20180820012331 66 108 3.0 9.0 0.00 0.02 0.01 93 1018.6
20180820011329 67 58 2.0 7.0 0.00 0.02 0.01 91 1018.6
20180820010332 67 72 1.0 5.0 0.00 0.02 0.01 91 1018.6
20180820005330 67 54 2.0 7.0 0.00 0.02 0.01 90 1018.5
20180820004329 67 30 1.0 6.0 0.00 0.02 0.01 90 1018.6
20180820003330 67 70 2.0 7.0 0.00 0.02 0.01 90 1018.4
20180820002327 67 79 1.0 9.0 0.00 0.02 0.01 90 1018.4
20180820001328 67 85 1.0 3.0 0.00 0.02 0.01 89 1018.3
20180820000327 66 0 1.0 6.0 0.00 0.03 0.01 89 1018.2
20180819235327 66 90 1.0 7.0 0.00 0.03 0.01 89 1018.0
20180819234326 67 82 1.0 6.0 0.00 0.03 0.01 89 1018.0
20180819233325 67 63 2.0 7.0 0.00 0.04 0.01 88 1017.9
20180819232328 67 52 1.0 5.0 0.00 0.04 0.01 88 1017.9
20180819231327 67 70 2.0 11.0 0.00 0.04 0.01 88 1017.7
20180819230327 67 352 2.0 7.0 0.00 0.04 0.01 87 1017.7
20180819225324 67 51 2.0 8.0 0.00 0.04 0.01 87 1017.8
20180819224321 67 65 2.0 7.0 0.00 0.07 0.01 86 1017.7
20180819223322 67 65 2.0 6.0 0.00 0.09 0.01 87 1017.6
20180819222323 67 81 3.0 10.0 0.00 0.11 0.01 86 1017.6
20180819221322 67 329 2.0 7.0 0.00 0.13 0.01 86 1017.6
20180819220322 67 89 2.0 10.0 0.00 0.14 0.01 88 1017.6
20180819215325 66 329 2.0 8.0 0.00 0.17 0.01 89 1017.5
20180819214322 66 96 3.0 6.0 0.00 0.17 0.01 89 1017.6
20180819213322 67 72 3.0 6.0 0.00 0.17 0.01 88 1017.6
20180819212320 67 41 2.0 11.0 0.00 0.17 0.01 88 1017.5
20180819211319 67 74 2.0 9.0 0.00 0.17 0.01 88 1017.5
20180819210319 67 68 3.0 10.0 0.00 0.17 0.01 88 1017.5
20180819205320 67 77 3.0 10.0 0.00 0.17 0.01 87 1017.4
20180819204319 67 41 3.0 8.0 0.00 0.17 0.01 87 1017.3
20180819203317 67 61 4.0 12.0 0.00 0.17 0.01 86 1017.1
20180819202317 68 46 4.0 15.0 0.00 0.17 0.01 85 1017.1
20180819201320 68 29 3.0 12.0 0.00 0.17 0.01 85 1017.2
20180819200318 67 95 4.0 10.0 0.00 0.17 0.01 86 1017.1
20180819195317 68 316 3.0 12.0 0.00 0.17 0.01 85 1017.2
20180819194318 68 59 3.0 11.0 0.00 0.17 0.01 86 1017.1
20180819193317 67 78 3.0 13.0 0.00 0.17 0.01 86 1016.9
20180819192318 67 36 4.0 13.0 0.00 0.17 0.01 85 1017.0
20180819191317 68 72 3.0 11.0 0.00 0.17 0.01 85 1017.0
20180819190318 68 62 3.0 9.0 0.00 0.17 0.01 84 1016.7
20180819185318 68 16 3.0 10.0 0.00 0.17 0.01 85 1017.0
20180819184317 67 33 4.0 10.0 0.00 0.17 0.01 84 1016.9
20180819183317 68 62 3.0 8.0 0.00 0.17 0.01 84 1016.9
20180819182316 68 18 3.0 10.0 0.00 0.17 0.01 83 1016.9
20180819181314 68 338 3.0 12.0 0.00 0.17 0.01 84 1016.6
20180819180314 68 355 4.0 11.0 0.00 0.17 0.01 83 1016.9
20180819175312 68 62 5.0 14.0 0.00 0.17 0.01 83 1016.6
20180819174314 69 77 4.0 16.0 0.00 0.17 0.01 82 1016.4
20180819173312 69 70 5.0 12.0 0.00 0.17 0.01 82 1016.3
20180819172314 69 97 3.0 11.0 0.00 0.17 0.01 82 1016.2
20180819171311 69 44 4.0 10.0 0.00 0.17 0.01 82 1016.3
20180819170311 69 79 4.0 12.0 0.00 0.17 0.01 82 1016.3
20180819165312 69 59 4.0 9.0 0.00 0.17 0.01 81 1016.4
20180819164311 69 136 4.0 10.0 0.00 0.17 0.01 80 1016.1
20180819163310 69 330 3.0 12.0 0.00 0.17 0.01 81 1016.1
20180819162307 69 63 4.0 14.0 0.00 0.17 0.01 80 1016.3
20180819161307 69 34 4.0 12.0 0.00 0.17 0.01 83 1016.4
20180819160306 69 52 5.0 15.0 0.00 0.17 0.01 82 1016.4
20180819155305 69 74 4.0 15.0 0.00 0.17 0.01 80 1016.6
20180819154304 69 304 4.0 13.0 0.00 0.17 0.01 82 1016.6
20180819153301 69 58 4.0 11.0 0.00 0.17 0.01 83 1016.5
20180819152302 69 68 4.0 13.0 0.00 0.17 0.01 82 1016.5
20180819151300 69 120 3.0 10.0 0.00 0.17 0.01 84 1016.6
20180819150258 69 329 3.0 10.0 0.00 0.17 0.01 83 1016.5
20180819145258 69 72 4.0 11.0 0.00 0.17 0.01 83 1016.2
20180819144257 69 352 3.0 11.0 0.00 0.17 0.01 84 1016.2
20180819143258 68 66 4.0 15.0 0.00 0.17 0.01 85 1016.0
20180819142257 68 37 4.0 9.0 0.00 0.17 0.01 86 1016.0
20180819141256 68 29 2.0 9.0 0.00 0.17 0.01 87 1015.9
20180819140256 67 350 4.0 11.0 0.00 0.17 0.01 87 1016.1
20180819135257 67 311 3.0 10.0 0.00 0.17 0.01 87 1016.0
20180819134255 67 46 3.0 11.0 0.00 0.17 0.01 88 1015.7
20180819133259 67 73 3.0 11.0 0.00 0.17 0.01 88 1015.6
20180819132258 67 56 3.0 10.0 0.00 0.17 0.01 88 1015.5
20180819131256 67 226 3.0 8.0 0.00 0.17 0.01 89 1015.3
20180819130256 67 65 3.0 9.0 0.00 0.17 0.01 89 1015.1
20180819125257 67 96 3.0 9.0 0.00 0.17 0.01 89 1015.1
20180819124255 66 188 2.0 8.0 0.00 0.17 0.01 90 1014.9
20180819123255 66 27 3.0 8.0 0.00 0.17 0.01 90 1014.9
20180819122257 66 65 2.0 8.0 0.00 0.17 0.01 91 1014.8
20180819121256 66 53 4.0 10.0 0.00 0.17 0.01 91 1014.7
20180819120256 66 29 2.0 7.0 0.00 0.17 0.01 92 1014.7
20180819115254 65 77 2.0 6.0 0.00 0.17 0.01 93 1014.6
20180819114253 65 33 2.0 7.0 0.00 0.17 0.01 93 1014.4
20180819113253 65 30 2.0 6.0 0.00 0.17 0.01 93 1014.1
20180819112254 65 86 2.0 8.0 0.00 0.17 0.01 93 1014.1
20180819111256 65 37 2.0 9.0 0.00 0.17 0.01 93 1014.1
20180819110254 65 59 2.0 12.0 0.00 0.17 0.01 92 1014.1
20180819105255 65 52 2.0 6.0 0.00 0.17 0.01 92 1014.1
20180819104254 65 122 2.0 8.0 0.00 0.17 0.01 92 1013.9
20180819103253 65 106 2.0 10.0 0.00 0.17 0.01 92 1013.8
20180819102251 65 311 2.0 10.0 0.00 0.17 0.01 93 1013.7
20180819101252 65 315 1.0 8.0 0.00 0.17 0.01 93 1013.5
20180819100252 65 84 1.0 6.0 0.00 0.17 0.01 93 1013.3
20180819095251 65 110 2.0 7.0 0.00 0.17 0.01 93 1013.3
20180819094254 65 65 3.0 9.0 0.00 0.17 0.01 94 1013.2
20180819093254 65 82 2.0 9.0 0.00 0.17 0.01 95 1013.1
20180819092251 65 63 2.0 8.0 0.00 0.17 0.01 96 1012.9
20180819091252 65 59 1.0 5.0 0.00 0.17 0.01 96 1012.9
20180819090252 65 70 1.0 5.0 0.00 0.17 0.01 95 1013.0
20180819085252 65 75 1.0 7.0 0.00 0.17 0.01 95 1013.0
20180819084252 64 46 2.0 6.0 0.00 0.17 0.01 95 1012.8
20180819083251 64 49 2.0 8.0 0.00 0.17 0.01 95 1012.8
20180819082252 64 82 2.0 8.0 0.00 0.17 0.01 95 1012.7
20180819081248 64 50 2.0 8.0 0.00 0.17 0.01 96 1012.6
20180819080249 65 113 2.0 8.0 0.00 0.17 0.01 96 1012.6
20180819075247 65 53 1.0 6.0 0.00 0.17 0.01 96 1012.5
20180819074246 65 129 2.0 9.0 0.00 0.17 0.01 96 1012.5
20180819073244 65 49 2.0 8.0 0.00 0.17 0.01 96 1012.6
20180819072242 65 324 2.0 6.0 0.00 0.17 0.01 96 1012.6
20180819071241 65 9 2.0 7.0 0.00 0.17 0.01 96 1012.7
20180819070241 65 69 2.0 8.0 0.00 0.17 0.01 96 1012.7
20180819065241 65 103 2.0 9.0 0.00 0.17 0.01 96 1012.5
20180819064239 65 66 3.0 10.0 0.01 0.17 0.01 96 1012.4
20180819063239 65 56 2.0 8.0 0.01 0.17 0.01 96 1012.3
20180819062244 65 80 2.0 10.0 0.01 0.17 0.01 97 1012.2
20180819061242 65 50 3.0 10.0 0.01 0.17 0.01 97 1012.3
20180819060239 65 86 2.0 8.0 0.01 0.17 0.01 97 1012.2
20180819055242 65 78 3.0 12.0 0.01 0.17 0.01 97 1012.2
20180819054242 65 69 1.0 6.0 0.00 0.16 0.00 97 1012.5
20180819053240 65 89 2.0 10.0 0.00 0.16 0.00 97 1012.3
20180819052239 65 23 1.0 6.0 0.00 0.16 0.00 97 1012.4
20180819051238 65 5 1.0 5.0 0.00 0.16 0.00 97 1012.4
20180819050237 65 50 2.0 8.0 0.00 0.16 0.00 97 1012.3